Regional Weather Roundup
Issued by NWS State College, PA

Home | Current Version | Previous Version | Graphics & Text | Print | Product List | Glossary Off
Versions: 1 2 3 4 5 6 7 8 9 10 11 12 13 14 15 16 17 18 19 20 21 22 23 24 25 26 27 28 29 30 31 32 33 34 35 36 37 38 39 40 41 42 43 44 45 46 47 48 49 50

000
ASUS41 KCTP 280410
RWRCTP

REGIONAL WEATHER ROUNDUP
NATIONAL WEATHER SERVICE STATE COLLEGE PA
1200 AM EDT SUN AUG 28 2016

Note: "fair" indicates few or no clouds below 12,000 feet with no
significant weather and/or obstructions to visibility.

* = STATION THAT DOES NOT REPORT PRECIPITATION /E.G. RAIN...SNOW...ETC/
    THUNDER OR FOG.

PAZ002>004-007>009-013>016-020>023-029>032-280500-
WESTERN PENNSYLVANIA

CITY           SKY/WX    TMP DP  RH WIND       PRES   REMARKS
ERIE           CLOUDY    79  66  64 S10       30.11S
MEADVILLE      CLOUDY    76  64  66 VRB6      30.16R
FRANKLIN*        N/A     72  64  78 SE3       30.18F
NEW CASTLE     FAIR      71  70  96 CALM      30.16S
BEAVER COUNTY  NOT AVBL
BUTLER*        NOT AVBL
PITTSBURGH INT PTCLDY    75  68  78 CALM      30.16S
PITTSBURGH     PTCLDY    79  67  66 S7        30.17R
INDIANA*       CLEAR     77  68  73 S12       30.22R
LATROBE        PTCLDY    75  68  78 CALM      30.18R
WASHINGTON CO* CLEAR     70  66  88 CALM      30.18R
$$

PAZ004>006-010>012-017>019-024>028-033>037-041-042-045-046-049>053-280500-
CENTRAL PENNSYLVANIA

CITY           SKY/WX    TMP DP  RH WIND       PRES   REMARKS
BRADFORD       CLEAR     67  65  93 S3        30.23S
DUBOIS         CLEAR     72  65  78 SE6       30.21S
CLEARFIELD     CLEAR     68  67  96 N3        30.21F
JOHNSTOWN      CLEAR     73  65  75 SE8       30.25F
ALTOONA        CLEAR     70  65  84 S5        30.23F
STATE COLLEGE  CLEAR     72  66  81 NW3       30.22F
WILLIAMSPORT   CLEAR     70  65  84 CALM      30.19F
SELINSGROVE    CLEAR     67  67 100 CALM      30.21S
FT INDIANTOWN  CLEAR     68  65  92 NE1       30.21F
CAPITAL CITY   CLEAR     75  67  76 CALM      30.20S
HARRISBURG     CLEAR     76  68  76 CALM      30.19S
YORK           CLEAR     71  66  84 CALM      30.20F
$$

PAZ038>040-043-044-047-048-054-055-060>062-067>071-280500-
EASTERN PENNSYLVANIA

CITY           SKY/WX    TMP DP  RH WIND       PRES   REMARKS
SCRANTON       CLEAR     69  62  78 E7        30.23F
MOUNT POCONO   CLOUDY    61  58  90 CALM      30.29F
ALLENTOWN      PTCLDY    70  61  73 NE3       30.23F
QUAKERTOWN*    CLEAR     66  63  88 CALM      30.25S
READING        CLEAR     77  59  53 SE5       30.21S
LANCASTER      CLEAR     70  67  90 E6        30.21S
COATESVILLE    CLEAR     73  66  78 CALM      30.25S
POTTSTOWN      CLEAR     70  61  73 CALM      30.25R
BLUE BELL      CLEAR     63  61  94 CALM      30.23R
DOYLESTOWN     CLEAR     69  63  81 CALM      30.24R
WILLOW GROVE   NOT AVBL
NORTH PHILA    CLEAR     73  65  75 CALM      30.24S
PHILADELPHIA   PTCLDY    74  66  76 E6        30.23S
$$




USA.gov is the U.S. government's official web portal to all federal, state and local government web resources and services.